Time,TemperatureF,DewpointF,PressureIn,WindDirection,WindDirectionDegrees,WindSpeedMPH,WindSpeedGustMPH,Humidity,HourlyPrecipIn,Conditions,Clouds,dailyrainin,SoftwareType,DateUTC
2013-02-22 00:02:00,33.2,25.0,30.21,SSE,156,3.0,7.0,73,0.00,,,0.00,weatherlink.com 1.10,2013-02-22 08:02:00,
2013-02-22 00:17:00,33.4,25.0,30.20,SSE,154,5.0,9.0,72,0.00,,,0.00,weatherlink.com 1.10,2013-02-22 08:17:00,
2013-02-22 00:32:00,33.8,25.0,30.20,South,169,3.0,10.0,71,0.00,,,0.00,weatherlink.com 1.10,2013-02-22 08:32:00,
2013-02-22 00:47:00,34.1,25.0,30.20,SSW,195,7.0,9.0,70,0.00,,,0.00,weatherlink.com 1.10,2013-02-22 08:47:00,
2013-02-22 01:02:00,34.4,26.0,30.20,SSE,148,2.0,7.0,70,0.00,,,0.00,weatherlink.com 1.10,2013-02-22 09:02:00,
2013-02-22 01:17:00,34.6,25.0,30.20,SSE,167,4.0,8.0,69,0.00,,,0.00,weatherlink.com 1.10,2013-02-22 09:17:00,
2013-02-22 01:32:00,34.7,25.0,30.20,South,182,5.0,8.0,69,0.00,,,0.00,weatherlink.com 1.10,2013-02-22 09:32:00,
2013-02-22 01:47:00,34.8,25.0,30.20,SSW,201,2.0,5.0,68,0.00,,,0.00,weatherlink.com 1.10,2013-02-22 09:47:00,
2013-02-22 02:02:00,34.7,25.0,30.19,SSE,164,2.0,8.0,69,0.00,,,0.00,weatherlink.com 1.10,2013-02-22 10:02:00,
2013-02-22 02:17:00,34.6,26.0,30.19,South,188,3.0,10.0,70,0.00,,,0.00,weatherlink.com 1.10,2013-02-22 10:17:00,
2013-02-22 02:32:00,34.3,26.0,30.18,SSW,211,5.0,12.0,71,0.00,,,0.00,weatherlink.com 1.10,2013-02-22 10:32:00,
2013-02-22 02:47:00,34.4,26.0,30.18,South,189,8.0,14.0,70,0.00,,,0.00,weatherlink.com 1.10,2013-02-22 10:47:00,
2013-02-22 03:02:00,34.3,26.0,30.18,SSW,201,6.0,12.0,71,0.00,,,0.00,weatherlink.com 1.10,2013-02-22 11:02:00,
2013-02-22 03:17:00,34.3,26.0,30.18,SSE,157,4.0,14.0,71,0.00,,,0.00,weatherlink.com 1.10,2013-02-22 11:17:00,
2013-02-22 03:32:00,34.4,26.0,30.18,SSE,153,7.0,16.0,71,0.00,,,0.00,weatherlink.com 1.10,2013-02-22 11:32:00,
2013-02-22 03:47:00,34.4,26.0,30.16,South,185,8.0,14.0,71,0.00,,,0.00,weatherlink.com 1.10,2013-02-22 11:47:00,
2013-02-22 04:02:00,34.8,26.0,30.16,South,186,5.0,13.0,70,0.00,,,0.00,weatherlink.com 1.10,2013-02-22 12:02:00,
2013-02-22 04:17:00,35.1,25.0,30.16,South,182,5.0,12.0,68,0.00,,,0.00,weatherlink.com 1.10,2013-02-22 12:17:00,
2013-02-22 04:32:00,35.6,25.0,30.16,South,178,5.0,18.0,66,0.00,,,0.00,weatherlink.com 1.10,2013-02-22 12:32:00,
2013-02-22 04:47:00,35.5,25.0,30.16,South,190,6.0,16.0,67,0.00,,,0.00,weatherlink.com 1.10,2013-02-22 12:47:00,
2013-02-22 05:02:00,35.3,25.0,30.17,SSW,205,7.0,14.0,67,0.00,,,0.00,weatherlink.com 1.10,2013-02-22 13:02:00,
2013-02-22 05:17:00,35.2,26.0,30.16,SSW,198,4.0,13.0,69,0.00,,,0.00,weatherlink.com 1.10,2013-02-22 13:17:00,
2013-02-22 05:32:00,35.0,26.0,30.16,South,173,8.0,14.0,70,0.00,,,0.00,weatherlink.com 1.10,2013-02-22 13:32:00,
2013-02-22 05:47:00,35.1,26.0,30.16,SSW,192,9.0,16.0,70,0.00,,,0.00,weatherlink.com 1.10,2013-02-22 13:47:00,
2013-02-22 06:02:00,35.1,26.0,30.16,South,177,6.0,12.0,70,0.00,,,0.00,weatherlink.com 1.10,2013-02-22 14:02:00,
2013-02-22 06:17:00,35.1,26.0,30.15,South,188,8.0,18.0,70,0.00,,,0.00,weatherlink.com 1.10,2013-02-22 14:17:00,
2013-02-22 06:32:00,35.1,27.0,30.14,South,181,10.0,22.0,71,0.00,,,0.00,weatherlink.com 1.10,2013-02-22 14:32:00,
2013-02-22 06:47:00,35.2,26.0,30.14,SSE,152,6.0,22.0,70,0.00,,,0.00,weatherlink.com 1.10,2013-02-22 14:47:00,
2013-02-22 07:03:00,35.3,26.0,30.14,SE,139,9.0,23.0,69,0.00,,,0.00,weatherlink.com 1.10,2013-02-22 15:03:00,
2013-02-22 07:18:00,35.2,26.0,30.14,South,178,6.0,24.0,70,0.00,,,0.00,weatherlink.com 1.10,2013-02-22 15:18:00,
2013-02-22 07:33:00,35.1,26.0,30.13,South,187,11.0,20.0,70,0.00,,,0.00,weatherlink.com 1.10,2013-02-22 15:33:00,
2013-02-22 07:48:00,35.1,26.0,30.14,South,178,10.0,22.0,70,0.00,,,0.00,weatherlink.com 1.10,2013-02-22 15:48:00,
2013-02-22 08:03:00,35.3,26.0,30.13,South,171,6.0,22.0,69,0.00,,,0.00,weatherlink.com 1.10,2013-02-22 16:03:00,
2013-02-22 08:18:00,35.1,26.0,30.12,SSW,192,17.0,29.0,69,0.00,,,0.00,weatherlink.com 1.10,2013-02-22 16:18:00,
2013-02-22 08:33:00,35.2,26.0,30.12,SSW,194,12.0,28.0,69,0.00,,,0.00,weatherlink.com 1.10,2013-02-22 16:33:00,
2013-02-22 08:48:00,35.3,26.0,30.12,South,182,17.0,23.0,68,0.00,,,0.00,weatherlink.com 1.10,2013-02-22 16:48:00,
2013-02-22 09:03:00,35.7,26.0,30.12,South,178,7.0,22.0,67,0.00,,,0.00,weatherlink.com 1.10,2013-02-22 17:03:00,
2013-02-22 09:18:00,35.8,25.0,30.10,SSW,205,13.0,25.0,66,0.00,,,0.00,weatherlink.com 1.10,2013-02-22 17:18:00,
2013-02-22 09:33:00,36.1,26.0,30.09,South,180,15.0,26.0,66,0.00,,,0.00,weatherlink.com 1.10,2013-02-22 17:33:00,
2013-02-22 09:48:00,36.6,26.0,30.10,SSE,150,17.0,24.0,65,0.00,,,0.00,weatherlink.com 1.10,2013-02-22 17:48:00,
2013-02-22 10:03:00,36.6,26.0,30.08,South,183,7.0,26.0,65,0.00,,,0.00,weatherlink.com 1.10,2013-02-22 18:03:00,
2013-02-22 10:18:00,36.6,25.0,30.09,SE,142,20.0,29.0,64,0.00,,,0.00,weatherlink.com 1.10,2013-02-22 18:18:00,
2013-02-22 10:33:00,36.7,26.0,30.07,SSE,154,20.0,23.0,65,0.00,,,0.00,weatherlink.com 1.10,2013-02-22 18:33:00,
2013-02-22 10:48:00,36.9,26.0,30.08,SE,140,5.0,19.0,65,0.00,,,0.00,weatherlink.com 1.10,2013-02-22 18:48:00,
2013-02-22 11:03:00,37.3,26.0,30.07,South,171,8.0,21.0,64,0.00,,,0.00,weatherlink.com 1.10,2013-02-22 19:03:00,
2013-02-22 11:18:00,38.0,27.0,30.06,SSW,205,12.0,18.0,65,0.00,,,0.00,weatherlink.com 1.10,2013-02-22 19:18:00,
2013-02-22 11:33:00,39.4,28.0,30.05,SSE,165,8.0,16.0,65,0.00,,,0.00,weatherlink.com 1.10,2013-02-22 19:33:00,
2013-02-22 11:48:00,39.6,28.0,30.04,SE,136,6.0,17.0,64,0.00,,,0.00,weatherlink.com 1.10,2013-02-22 19:48:00,
2013-02-22 12:03:00,40.2,28.0,30.03,South,186,14.0,21.0,63,0.00,,,0.00,weatherlink.com 1.10,2013-02-22 20:03:00,
2013-02-22 12:18:00,40.9,29.0,30.02,SSW,195,7.0,19.0,62,0.00,,,0.00,weatherlink.com 1.10,2013-02-22 20:18:00,
2013-02-22 12:33:00,42.2,29.0,30.02,South,184,12.0,21.0,60,0.00,,,0.00,weatherlink.com 1.10,2013-02-22 20:33:00,
2013-02-22 12:48:00,42.9,30.0,30.01,South,188,2.0,17.0,60,0.00,,,0.00,weatherlink.com 1.10,2013-02-22 20:48:00,
2013-02-22 13:03:00,44.2,30.0,30.00,SSW,198,6.0,18.0,59,0.00,,,0.00,weatherlink.com 1.10,2013-02-22 21:03:00,
2013-02-22 13:18:00,42.6,31.0,30.01,SE,146,2.0,19.0,65,0.00,,,0.00,weatherlink.com 1.10,2013-02-22 21:18:00,
2013-02-22 13:33:00,41.5,32.0,30.00,South,181,14.0,20.0,69,0.00,,,0.00,weatherlink.com 1.10,2013-02-22 21:33:00,
2013-02-22 13:49:00,40.9,32.0,30.00,SSW,192,6.0,16.0,70,0.00,,,0.00,weatherlink.com 1.10,2013-02-22 21:49:00,
2013-02-22 14:04:00,40.0,32.0,29.98,SW,215,4.0,11.0,74,0.00,,,0.00,weatherlink.com 1.10,2013-02-22 22:04:00,
2013-02-22 14:19:00,38.5,33.0,29.98,SSW,193,4.0,13.0,81,0.00,,,0.00,weatherlink.com 1.10,2013-02-22 22:19:00,
2013-02-22 14:34:00,37.5,33.0,29.97,ESE,113,10.0,14.0,84,0.00,,,0.00,weatherlink.com 1.10,2013-02-22 22:34:00,
2013-02-22 14:50:00,37.5,33.0,29.95,South,183,6.0,10.0,84,0.00,,,0.00,weatherlink.com 1.10,2013-02-22 22:50:00,
2013-02-22 15:04:00,37.4,33.0,29.95,South,188,5.0,20.0,85,0.00,,,0.00,weatherlink.com 1.10,2013-02-22 23:04:00,
2013-02-22 15:19:00,37.4,34.0,29.98,SW,223,1.0,21.0,86,0.00,,,0.00,weatherlink.com 1.10,2013-02-22 23:19:00,
2013-02-22 15:34:00,37.5,34.0,30.00,SW,225,3.0,14.0,86,0.01,,,0.01,weatherlink.com 1.10,2013-02-22 23:34:00,
2013-02-22 15:49:00,37.1,34.0,29.97,South,171,5.0,14.0,87,0.01,,,0.01,weatherlink.com 1.10,2013-02-22 23:49:00,
2013-02-22 16:04:00,36.5,33.0,29.93,SSE,165,6.0,13.0,88,0.02,,,0.02,weatherlink.com 1.10,2013-02-23 00:04:00,
2013-02-22 16:19:00,36.7,33.0,29.91,SSW,199,10.0,19.0,87,0.02,,,0.02,weatherlink.com 1.10,2013-02-23 00:19:00,
2013-02-22 16:34:00,37.4,33.0,29.92,SW,218,9.0,22.0,84,0.01,,,0.02,weatherlink.com 1.10,2013-02-23 00:34:00,
2013-02-22 16:49:00,37.8,33.0,29.91,SE,144,15.0,30.0,82,0.01,,,0.02,weatherlink.com 1.10,2013-02-23 00:49:00,
2013-02-22 17:04:00,38.4,32.0,29.91,SSE,166,9.0,21.0,79,0.00,,,0.02,weatherlink.com 1.10,2013-02-23 01:04:00,
2013-02-22 17:19:00,38.6,31.0,29.91,SSW,208,10.0,22.0,74,0.00,,,0.02,weatherlink.com 1.10,2013-02-23 01:19:00,
2013-02-22 17:34:00,38.4,32.0,29.91,SSW,196,24.0,28.0,79,0.00,,,0.02,weatherlink.com 1.10,2013-02-23 01:34:00,
2013-02-22 17:49:00,38.5,32.0,29.91,SW,229,8.0,20.0,78,0.00,,,0.02,weatherlink.com 1.10,2013-02-23 01:49:00,
2013-02-22 18:04:00,37.2,32.0,29.91,WSW,258,2.0,18.0,82,0.00,,,0.02,weatherlink.com 1.10,2013-02-23 02:04:00,
2013-02-22 18:19:00,36.8,32.0,29.92,SE,126,6.0,11.0,83,0.00,,,0.02,weatherlink.com 1.10,2013-02-23 02:19:00,
2013-02-22 18:34:00,36.6,32.0,29.92,SE,140,4.0,9.0,84,0.00,,,0.02,weatherlink.com 1.10,2013-02-23 02:34:00,
2013-02-22 18:49:00,36.6,33.0,29.92,SSE,159,4.0,11.0,85,0.00,,,0.02,weatherlink.com 1.10,2013-02-23 02:49:00,
2013-02-22 19:04:00,36.3,33.0,29.92,South,178,8.0,11.0,86,0.00,,,0.02,weatherlink.com 1.10,2013-02-23 03:04:00,
2013-02-22 19:19:00,36.0,33.0,29.90,SSE,165,3.0,10.0,87,0.00,,,0.02,weatherlink.com 1.10,2013-02-23 03:19:00,
2013-02-22 19:34:00,35.8,32.0,29.90,SSW,205,4.0,14.0,87,0.00,,,0.02,weatherlink.com 1.10,2013-02-23 03:34:00,
2013-02-22 19:49:00,35.7,32.0,29.91,South,184,5.0,12.0,87,0.00,,,0.02,weatherlink.com 1.10,2013-02-23 03:49:00,
2013-02-22 20:04:00,35.9,32.0,29.94,WNW,286,8.0,12.0,86,0.00,,,0.02,weatherlink.com 1.10,2013-02-23 04:04:00,
2013-02-22 20:19:00,32.4,30.0,29.94,West,259,7.0,22.0,89,0.01,,,0.03,weatherlink.com 1.10,2013-02-23 04:19:00,
2013-02-22 20:34:00,32.7,28.0,29.94,SW,233,3.0,18.0,81,0.01,,,0.03,weatherlink.com 1.10,2013-02-23 04:34:00,
2013-02-22 20:49:00,32.6,26.0,29.94,WSW,242,0.0,5.0,78,0.01,,,0.03,weatherlink.com 1.10,2013-02-23 04:49:00,
2013-02-22 21:04:00,32.1,26.0,29.93,East,101,1.0,7.0,79,0.01,,,0.03,weatherlink.com 1.10,2013-02-23 05:04:00,
2013-02-22 21:19:00,31.6,24.0,29.94,West,270,2.0,12.0,74,0.00,,,0.03,weatherlink.com 1.10,2013-02-23 05:19:00,
2013-02-22 21:34:00,31.7,23.0,29.97,West,281,2.0,10.0,69,0.00,,,0.03,weatherlink.com 1.10,2013-02-23 05:34:00,
2013-02-22 21:49:00,31.4,27.0,29.99,WSW,252,5.0,19.0,83,0.00,,,0.03,weatherlink.com 1.10,2013-02-23 05:49:00,
2013-02-22 22:04:00,30.3,28.0,30.01,West,269,5.0,12.0,89,0.00,,,0.03,weatherlink.com 1.10,2013-02-23 06:04:00,
2013-02-22 22:19:00,29.7,27.0,30.01,West,267,3.0,12.0,91,0.00,,,0.03,weatherlink.com 1.10,2013-02-23 06:19:00,
2013-02-22 22:34:00,28.8,27.0,30.01,West,275,5.0,5.0,91,0.00,,,0.03,weatherlink.com 1.10,2013-02-23 06:34:00,
2013-02-22 22:49:00,28.3,26.0,30.02,NNW,329,5.0,13.0,89,0.00,,,0.03,weatherlink.com 1.10,2013-02-23 06:49:00,
2013-02-22 23:04:00,27.3,25.0,30.02,WNW,300,6.0,7.0,90,0.00,,,0.03,weatherlink.com 1.10,2013-02-23 07:04:00,
2013-02-22 23:19:00,27.1,24.0,30.03,WNW,290,3.0,8.0,89,0.00,,,0.03,weatherlink.com 1.10,2013-02-23 07:19:00,
2013-02-22 23:34:00,27.9,25.0,30.04,West,274,5.0,12.0,88,0.00,,,0.03,weatherlink.com 1.10,2013-02-23 07:34:00,
2013-02-22 23:49:00,27.1,24.0,30.05,West,271,3.0,9.0,89,0.00,,,0.03,weatherlink.com 1.10,2013-02-23 07:49:00,